Location: Great Falls
(47.5000°N, 111.3000°W)
Time: 13:12:01
(UTC-07:00)

OTV 5 (USA 277) - Visible Passes

Search period start: 17 January 2018 00:00
Search period end: 27 January 2018 00:00
Orbit: 404 x 417 km, 43.0° (Epoch: 07 September)

Date Brightness Start Highest point End Pass type
(mag) Time Alt. Az. Time Alt. Az. Time Alt. Az.
23 Jan ? 19:00:11 10° SSW 19:02:01 15° SSE 19:02:01 15° SSE visible
24 Jan ? 18:10:14 10° S 18:11:22 11° SSE 18:12:29 10° SE visible
24 Jan ? 19:45:03 10° SW 19:46:14 18° SW 19:46:14 18° SW visible
25 Jan ? 18:54:16 10° SW 18:57:05 25° SSE 18:57:40 23° SE visible
26 Jan ? 18:03:37 10° SSW 18:06:09 20° SSE 18:08:41 10° ESE visible
26 Jan ? 19:39:51 10° WSW 19:41:49 27° SW 19:41:49 27° SW visible
